Time,TemperatureF,DewpointF,PressureIn,WindDirection,WindDirectionDegrees,WindSpeedMPH,WindSpeedGustMPH,Humidity,HourlyPrecipIn,Conditions,Clouds,dailyrainin,SoftwareType,DateUTC
2013-01-21 00:22:00,51.0,25.0,30.02,North,0,0.0,-999.0,36,0.00,,,-99.99,,2013-01-21 08:22:00,
2013-01-21 00:32:00,51.0,25.0,30.02,North,0,0.0,-999.0,36,0.00,,,-99.99,,2013-01-21 08:32:00,
2013-01-21 01:22:00,47.0,27.0,30.02,North,0,0.0,-999.0,46,0.00,,,-99.99,,2013-01-21 09:22:00,
2013-01-21 01:33:00,47.0,27.0,30.02,North,0,0.0,-999.0,46,0.00,,,-99.99,,2013-01-21 09:33:00,
2013-01-21 02:22:00,45.0,25.0,30.01,North,0,0.0,-999.0,46,0.00,,,-99.99,,2013-01-21 10:22:00,
2013-01-21 02:32:00,45.0,25.0,30.01,North,0,0.0,-999.0,46,0.00,,,-99.99,,2013-01-21 10:32:00,
2013-01-21 03:22:00,43.0,26.0,30.00,North,0,0.0,-999.0,50,0.00,,,-99.99,,2013-01-21 11:22:00,
2013-01-21 03:32:00,43.0,26.0,30.00,North,0,0.0,-999.0,50,0.00,,,-99.99,,2013-01-21 11:32:00,
2013-01-21 04:22:00,43.0,27.0,30.00,North,0,0.0,-999.0,53,0.00,,,-99.99,,2013-01-21 12:22:00,
2013-01-21 04:32:00,43.0,27.0,30.00,North,0,0.0,-999.0,53,0.00,,,-99.99,,2013-01-21 12:32:00,
2013-01-21 05:23:00,42.0,27.0,30.01,North,0,0.0,-999.0,54,0.00,,,-99.99,,2013-01-21 13:23:00,
2013-01-21 05:33:00,42.0,27.0,30.01,North,0,0.0,-999.0,54,0.00,,,-99.99,,2013-01-21 13:33:00,
2013-01-21 06:23:00,41.0,26.0,30.02,North,0,0.0,-999.0,55,0.00,,,-99.99,,2013-01-21 14:23:00,
2013-01-21 06:32:00,41.0,26.0,30.02,North,0,0.0,-999.0,55,0.00,,,-99.99,,2013-01-21 14:32:00,
2013-01-21 07:23:00,41.0,26.0,30.03,North,0,0.0,-999.0,55,0.00,,,-99.99,,2013-01-21 15:23:00,
2013-01-21 07:33:00,41.0,26.0,30.03,North,0,0.0,-999.0,55,0.00,,,-99.99,,2013-01-21 15:33:00,
2013-01-21 08:23:00,45.0,29.0,30.05,North,0,0.0,-999.0,54,0.00,,,-99.99,,2013-01-21 16:23:00,
2013-01-21 08:33:00,45.0,29.0,30.05,North,0,0.0,-999.0,54,0.00,,,-99.99,,2013-01-21 16:33:00,
2013-01-21 09:22:00,56.0,36.0,30.07,North,0,0.0,-999.0,46,0.00,,,-99.99,,2013-01-21 17:22:00,
2013-01-21 09:33:00,56.0,36.0,30.07,North,0,0.0,-999.0,46,0.00,,,-99.99,,2013-01-21 17:33:00,
2013-01-21 10:22:00,71.0,25.0,30.07,North,0,0.0,-999.0,18,0.00,,,-99.99,,2013-01-21 18:22:00,
2013-01-21 10:33:00,71.0,25.0,30.07,North,0,0.0,-999.0,18,0.00,,,-99.99,,2013-01-21 18:33:00,
2013-01-21 10:42:00,71.0,25.0,30.07,North,0,0.0,-999.0,18,0.00,,,-99.99,,2013-01-21 18:42:00,
2013-01-21 10:52:00,71.0,25.0,30.07,North,0,0.0,-999.0,18,0.00,,,-99.99,,2013-01-21 18:52:00,
2013-01-21 11:22:00,76.0,13.0,30.07,WNW,290,1.0,-999.0,9,0.00,,,-99.99,,2013-01-21 19:22:00,
2013-01-21 11:33:00,76.0,13.0,30.07,WNW,290,1.0,-999.0,9,0.00,,,-99.99,,2013-01-21 19:33:00,
2013-01-21 11:42:00,76.0,13.0,30.07,WNW,290,1.0,-999.0,9,0.00,,,-99.99,,2013-01-21 19:42:00,
2013-01-21 11:52:00,76.0,13.0,30.07,WNW,290,1.0,-999.0,9,0.00,,,-99.99,,2013-01-21 19:52:00,
2013-01-21 12:22:00,79.0,10.0,30.03,North,0,0.0,-999.0,7,0.00,,,-99.99,,2013-01-21 20:22:00,
2013-01-21 12:32:00,79.0,10.0,30.03,North,0,0.0,-999.0,7,0.00,,,-99.99,,2013-01-21 20:32:00,
2013-01-21 12:43:00,79.0,10.0,30.03,North,0,0.0,-999.0,7,0.00,,,-99.99,,2013-01-21 20:43:00,
2013-01-21 12:52:00,79.0,10.0,30.03,North,0,0.0,-999.0,7,0.00,,,-99.99,,2013-01-21 20:52:00,
2013-01-21 13:22:00,82.0,4.0,30.00,North,0,0.0,-999.0,5,0.00,,,-99.99,,2013-01-21 21:22:00,
2013-01-21 13:33:00,82.0,4.0,30.00,North,0,0.0,-999.0,5,0.00,,,-99.99,,2013-01-21 21:33:00,
2013-01-21 13:43:00,82.0,4.0,30.00,North,0,0.0,-999.0,5,0.00,,,-99.99,,2013-01-21 21:43:00,
2013-01-21 13:53:00,82.0,4.0,30.00,North,0,0.0,-999.0,5,0.00,,,-99.99,,2013-01-21 21:53:00,
2013-01-21 14:23:00,82.0,8.0,29.99,North,0,0.0,-999.0,6,0.00,,,-99.99,,2013-01-21 22:23:00,
2013-01-21 14:33:00,82.0,8.0,29.99,North,0,0.0,-999.0,6,0.00,,,-99.99,,2013-01-21 22:33:00,
2013-01-21 14:42:00,82.0,8.0,29.99,North,0,0.0,-999.0,6,0.00,,,-99.99,,2013-01-21 22:42:00,
2013-01-21 14:52:00,82.0,8.0,29.99,North,0,0.0,-999.0,6,0.00,,,-99.99,,2013-01-21 22:52:00,
2013-01-21 15:22:00,83.0,9.0,29.97,North,0,0.0,-999.0,6,0.00,,,-99.99,,2013-01-21 23:22:00,
2013-01-21 15:33:00,83.0,9.0,29.97,North,0,0.0,-999.0,6,0.00,,,-99.99,,2013-01-21 23:33:00,
2013-01-21 15:42:00,83.0,9.0,29.97,North,0,0.0,-999.0,6,0.00,,,-99.99,,2013-01-21 23:42:00,
2013-01-21 15:52:00,83.0,9.0,29.97,North,0,0.0,-999.0,6,0.00,,,-99.99,,2013-01-21 23:52:00,
2013-01-21 16:22:00,83.0,5.0,29.97,North,0,0.0,-999.0,5,0.00,,,-99.99,,2013-01-22 00:22:00,
2013-01-21 16:32:00,83.0,5.0,29.97,North,0,0.0,-999.0,5,0.00,,,-99.99,,2013-01-22 00:32:00,
2013-01-21 16:42:00,83.0,5.0,29.97,North,0,0.0,-999.0,5,0.00,,,-99.99,,2013-01-22 00:42:00,
2013-01-21 16:53:00,83.0,5.0,29.97,North,0,0.0,-999.0,5,0.00,,,-99.99,,2013-01-22 00:53:00,
2013-01-21 17:23:00,79.0,15.0,29.96,North,0,0.0,-999.0,9,0.00,,,-99.99,,2013-01-22 01:23:00,
2013-01-21 17:32:00,79.0,15.0,29.96,North,0,0.0,-999.0,9,0.00,,,-99.99,,2013-01-22 01:32:00,
2013-01-21 17:42:00,79.0,15.0,29.96,North,0,0.0,-999.0,9,0.00,,,-99.99,,2013-01-22 01:42:00,
2013-01-21 17:52:00,79.0,15.0,29.96,North,0,0.0,-999.0,9,0.00,,,-99.99,,2013-01-22 01:52:00,
2013-01-21 18:22:00,70.0,20.0,29.98,North,0,0.0,-999.0,15,0.00,,,-99.99,,2013-01-22 02:22:00,
2013-01-21 18:32:00,70.0,20.0,29.98,North,0,0.0,-999.0,15,0.00,,,-99.99,,2013-01-22 02:32:00,
2013-01-21 18:42:00,70.0,20.0,29.98,North,0,0.0,-999.0,15,0.00,,,-99.99,,2013-01-22 02:42:00,
2013-01-21 18:52:00,70.0,20.0,29.98,North,0,0.0,-999.0,15,0.00,,,-99.99,,2013-01-22 02:52:00,
2013-01-21 19:22:00,65.0,22.0,30.00,North,0,0.0,-999.0,19,0.00,,,-99.99,,2013-01-22 03:22:00,
2013-01-21 19:32:00,65.0,22.0,30.00,North,0,0.0,-999.0,19,0.00,,,-99.99,,2013-01-22 03:32:00,
2013-01-21 19:42:00,65.0,22.0,30.00,North,0,0.0,-999.0,19,0.00,,,-99.99,,2013-01-22 03:42:00,
2013-01-21 19:52:00,65.0,22.0,30.00,North,0,0.0,-999.0,19,0.00,,,-99.99,,2013-01-22 03:52:00,
2013-01-21 20:22:00,59.0,25.0,30.00,North,0,0.0,-999.0,27,0.00,,,-99.99,,2013-01-22 04:22:00,
2013-01-21 20:32:00,59.0,25.0,30.00,North,0,0.0,-999.0,27,0.00,,,-99.99,,2013-01-22 04:32:00,
2013-01-21 21:22:00,55.0,24.0,30.02,North,0,0.0,-999.0,30,0.00,,,-99.99,,2013-01-22 05:22:00,
2013-01-21 21:32:00,55.0,24.0,30.02,North,0,0.0,-999.0,30,0.00,,,-99.99,,2013-01-22 05:32:00,
2013-01-21 22:22:00,55.0,29.0,30.04,North,0,0.0,-999.0,36,0.00,,,-99.99,,2013-01-22 06:22:00,
2013-01-21 22:32:00,55.0,29.0,30.04,North,0,0.0,-999.0,36,0.00,,,-99.99,,2013-01-22 06:32:00,
2013-01-21 23:22:00,52.0,25.0,30.04,North,0,0.0,-999.0,35,0.00,,,-99.99,,2013-01-22 07:22:00,
2013-01-21 23:32:00,52.0,25.0,30.04,North,0,0.0,-999.0,35,0.00,,,-99.99,,2013-01-22 07:32:00,